Lapse_Rate
3.9 3.8 3.7 3.6 3.4 3.0 3.2 3.0 2.3 1.6 2.2 1.7 1.4 1.0 0.8 1.7 1.7 1.5 1.7 1.3 1.4 1.8
3.3 3.6 4.0 3.4 3.3 3.4 3.6 3.5 3.0 2.0 1.9 1.5 1.1 1.2 0.9 0.7 1.1 1.2 1.2 1.8 1.0 2.3
4.1 4.2 4.3 4.3 4.0 3.8 3.6 3.2 2.5 1.9 1.9 1.3 0.7 0.6 0.7 0.6 1.0 1.4 1.2 1.5 1.5 2.4
4.7 4.6 4.5 4.2 3.9 3.7 3.7 2.3 1.9 2.0 1.8 0.9 0.9 1.2 1.2 1.4 1.3 1.6 1.4 1.7 1.5 2.5
4.2 4.4 4.2 3.9 4.0 3.5 3.0 2.2 1.8 1.7 1.8 1.7 1.4 0.9 1.4 1.5 1.5 1.6 1.6 2.4 2.1 2.8
4.2 4.0 3.7 3.5 2.6 1.8 2.4 3.0 2.5 2.7 2.3 1.7 1.6 1.4 1.9 2.2 1.4 1.2 1.4 2.2 2.8 3.1
3.7 3.1 3.3 3.4 2.3 2.3 2.1 2.5 2.0 2.3 2.5 2.2 2.0 2.1 1.6 1.7 1.5 2.0 2.1 2.4 2.6 3.3
3.5 2.5 2.4 2.3 2.4 2.5 2.8 3.2 2.0 1.4 1.1 2.4 1.9 2.0 1.7 1.6 1.7 2.0 1.7 2.1 2.5 3.1
0.8 1.6 1.9 1.8 2.0 1.7 1.5 1.2 1.7 1.3 1.6 1.5 1.9 -0.9 -0.7 0.6 0.9 2.1 2.0 1.4 2.1 2.6
-0.2 -0.1 -0.2 0.4 1.1 1.5 1.1 1.3 1.5 1.2 1.1 1.4 1.0 0.4 -0.6 -1.2 1.3 1.5 1.1 1.5 2.2 3.5
-1.0 -0.6 0.6 0.8 0.9 0.5 0.8 0.9 0.9 1.0 1.3 0.9 1.0 -1.1 0.1 -0.4 0.0 0.2 1.4 2.2 2.8 2.8
0.7 0.8 0.7 0.6 0.1 0.4 0.4 0.6 0.8 0.8 0.8 1.2 0.3 -0.7 -0.5 0.5 0.8 1.3 1.7 2.1 2.6 2.0
0.6 0.9 1.1 0.6 0.9 0.9 1.0 0.8 1.1 0.4 0.6 0.0 -0.4 -0.2 0.7 0.8 1.7 1.2 1.2 1.9 1.5 2.0
1.8 1.8 1.9 1.8 1.6 0.6 0.2 -0.2 -1.0 -1.4 -1.1 0.0 0.3 0.3 1.0 1.3 1.5 2.3 2.2 2.6 1.9 1.4
Wind_Speed
16 10 10 10 8 7 8 8 7 8 7 9 10 9 8 5 6 8 5 9 5 4
15 16 14 12 9 9 11 10 9 10 11 9 8 9 10 7 9 9 9 8 9 5
16 16 15 12 14 14 12 11 9 10 10 9 8 9 10 8 8 9 7 7 9 7
16 16 15 14 14 14 12 10 10 9 9 9 9 9 10 12 13 13 11 9 10 9
17 15 15 15 15 11 11 10 10 9 10 9 11 14 13 12 13 15 13 12 11 11
16 16 16 15 11 12 11 7 7 9 13 14 13 12 13 14 14 13 12 12 10 8
17 17 17 13 9 11 12 13 14 14 14 12 12 11 10 10 10 10 9 9 8 7
16 10 8 9 12 13 15 14 11 12 11 10 10 9 11 11 10 10 9 6 5 3
6 7 7 6 6 5 4 4 6 9 11 11 7 11 13 11 8 8 6 4 5 5
7 7 7 7 7 7 8 7 8 8 9 9 7 9 9 11 6 6 8 7 6 6
6 6 6 7 7 5 5 7 7 6 7 7 5 14 14 16 10 7 7 6 6 6
5 5 5 5 5 4 6 6 6 7 10 9 7 15 14 10 8 9 8 7 6 6
6 6 6 6 6 4 6 7 7 9 9 11 10 13 14 11 4 7 6 5 6 7
6 6 6 7 6 8 8 10 10 11 10 11 11 12 16 13 5 4 4 3 3 2
Wind_Direction
218 219 224 222 219 225 230 236 219 206 209 206 188 185 180 167 165 155 157 143 135 168
220 221 224 227 226 226 225 227 220 206 203 199 190 187 173 172 167 164 162 172 156 171
221 224 229 231 227 226 228 224 208 200 198 191 171 168 169 171 162 166 168 168 181 185
224 225 226 228 229 228 224 206 194 198 201 187 172 180 183 178 173 177 177 180 186 194
222 223 223 225 225 218 209 199 194 179 187 193 195 184 190 182 183 184 183 187 187 189
222 217 219 218 203 191 194 194 203 197 202 197 201 200 199 196 187 188 185 176 180 185
221 217 219 216 188 184 174 194 200 210 206 199 199 202 196 184 182 183 176 167 166 180
221 212 206 194 190 195 200 218 206 194 195 192 187 188 186 182 178 178 155 152 145 173
154 160 174 179 184 165 159 185 195 193 186 183 191 170 168 156 142 133 122 107 93 90
136 134 135 141 159 168 170 173 187 188 172 170 156 148 127 105 104 124 124 128 141 124
134 141 146 150 157 151 159 160 154 146 134 116 116 121 122 113 117 112 97 108 94 99
123 125 121 116 115 113 117 112 111 110 107 100 92 99 103 101 108 106 96 84 90 85
99 111 113 115 115 101 102 99 93 77 68 82 88 82 91 94 95 96 99 95 88 86
87 95 106 104 101 103 94 89 82 83 76 74 82 79 76 76 76 97 98 101 114 89